This is the latest recevied weather packets stored in our database for station/object IW3HBX-3. If no packets are shown the sender has not sent any weather packets the latest 10 day(s).
| Time | Temp. | Humidity | Pressure | Rain* | Wind** | Luminosity | Snow |
|---|---|---|---|---|---|---|---|
| 1777560937 | 17.78° C | 37% | 1024.2 hPa | 0 mm | - | 424 W/m² | - |
| 1777560338 | 17.78° C | 37% | 1024.2 hPa | 0 mm | - | 455 W/m² | - |
| 1777560038 | 18.33° C | 37% | 1024.2 hPa | 0 mm | - | 472 W/m² | - |
| 1777559738 | 17.78° C | 36% | 1024.2 hPa | 0 mm | - | 487 W/m² | - |
| 1777559438 | 17.78° C | 37% | 1024.2 hPa | 0 mm | - | 498 W/m² | - |
| 1777559138 | 18.33° C | 37% | 1024.1 hPa | 0 mm | - | 514 W/m² | - |
| 1777558838 | 18.89° C | 37% | 1024.2 hPa | 0 mm | - | 529 W/m² | - |
| 1777558538 | 17.78° C | 37% | 1024.1 hPa | 0 mm | - | 542 W/m² | - |
| 1777558238 | 17.22° C | 38% | 1024.2 hPa | 0 mm | - | 557 W/m² | - |
| 1777557938 | 17.78° C | 38% | 1024.3 hPa | 0 mm | - | 567 W/m² | - |
| 1777557638 | 18.33° C | 37% | 1024.3 hPa | 0 mm | - | 579 W/m² | - |
| 1777557338 | 17.78° C | 37% | 1024.3 hPa | 0 mm | - | 591 W/m² | - |
| 1777557038 | 17.78° C | 38% | 1024.4 hPa | 0 mm | - | 604 W/m² | - |
| 1777556739 | 17.78° C | 37% | 1024.4 hPa | 0 mm | - | 615 W/m² | - |
| 1777556439 | 17.78° C | 38% | 1024.5 hPa | 0 mm | - | 628 W/m² | - |
| 1777556139 | 17.22° C | 38% | 1024.5 hPa | 0 mm | - | 640 W/m² | - |
| 1777555839 | 17.78° C | 38% | 1024.6 hPa | 0 mm | - | 651 W/m² | - |
| 1777555539 | 17.78° C | 38% | 1024.5 hPa | 0 mm | - | 663 W/m² | - |
| 1777555239 | 17.22° C | 38% | 1024.6 hPa | 0 mm | - | 677 W/m² | - |
| 1777554939 | 17.22° C | 38% | 1024.7 hPa | 0 mm | - | 686 W/m² | - |
| 1777554639 | 17.78° C | 38% | 1024.8 hPa | 0 mm | - | 697 W/m² | - |
| 1777554339 | 17.78° C | 38% | 1024.8 hPa | 0 mm | - | 707 W/m² | - |
| 1777554039 | 16.67° C | 39% | 1024.8 hPa | 0 mm | - | 715 W/m² | - |
| 1777553739 | 16.67° C | 39% | 1024.9 hPa | 0 mm | - | 727 W/m² | - |
| 1777553439 | 17.22° C | 38% | 1025 hPa | 0 mm | - | 736 W/m² | - |
* Rain latest hour (hover to see other rain measurements)
** Current wind speed in m/s (hover to see current wind gust speed)